Regional Weather Roundup
Issued by NWS

Home | Current Version | Previous Version | Text Only | Print | Product List | Glossary On
Versions: 1 2 3 4 5 6 7 8 9 10 11 12 13 14 15 16 17 18 19 20 21 22 23 24 25 26 27 28 29 30 31 32 33 34 35 36 37 38 39 40 41 42 43 44 45 46 47 48 49 50
000
ASMX46 KSGX 290611
RWRMX
MEXICAN WEATHER ROUNDUP
NATIONAL WEATHER SERVICE SAN DIEGO CA
1100 PM PDT SUN MAY 28 2017

BAJA CALIFORNIA

CITY           SKY/WX    TMP DP  RH WIND       PRES   REMARKS
ENSENADA NW      N/A     61  32  34 CALM      29.96S
LA PAZ           N/A    N/A N/A N/A MISG        N/A
MEXICALI       CLEAR     86  32  14 NW8       29.79S
S.J. DEL CABO    N/A    N/A N/A N/A MISG        N/A
TIJUANA        CLOUDY    59  52  77 N5        30.01F

NORTHWESTERN MEXICO

CITY           SKY/WX    TMP DP  RH WIND       PRES   REMARKS
HERMOSILLO     CLEAR     77  39  25 CALM      29.80F

NORTHEASTERN MEXICO

CITY           SKY/WX    TMP DP  RH WIND       PRES   REMARKS
MONCLOVA         N/A    N/A N/A N/A MISG        N/A
MONTERREY      CLOUDY    82  72  69 N14       29.92R
REYNOSA          N/A    N/A N/A N/A MISG        N/A
TORREON        MOCLDY    82  57  42 CALM      30.00
VICTORIA         N/A    N/A N/A N/A MISG        N/A

WESTERN MEXICO

CITY           SKY/WX    TMP DP  RH WIND       PRES   REMARKS
AGUASCALIENTES CLEAR     68  48  49 E6        30.18S
COLIMA           N/A    N/A N/A N/A MISG        N/A
GUADALAJARA    CLEAR     72  45  37 SW8       30.12F
MAZATLAN       PTCLDY    72  70  94 CALM      29.88R
PTO. VALLARTA  CLEAR     73  72  94 CALM      29.89S
TEPIC            N/A    N/A N/A N/A MISG        N/A
URUAPAN          N/A    N/A N/A N/A MISG        N/A
ZACATECAS        N/A    N/A N/A N/A MISG        N/A

CENTRAL MEXICO

CITY           SKY/WX    TMP DP  RH WIND       PRES   REMARKS
CUERNAVACA       N/A    N/A N/A N/A MISG        N/A
LEON             N/A    N/A N/A N/A MISG        N/A
MEXICO CITY    MOCLDY    66  50  55 SE10      30.28F
MORELIA        MOCLDY    68  59  73 E3        30.20R
POZA RICA        N/A    N/A N/A N/A MISG        N/A
QUERETARO      PTCLDY    70  55  60 E5        30.24S
S. LUIS POTOSI MOCLDY    68  54  60 NE6       30.22R
TOLUCA         MOCLDY    54  50  87 S12       30.36F
VERACRUZ         N/A    N/A N/A N/A MISG        N/A

SOUTHERN MEXICO

CITY           SKY/WX    TMP DP  RH WIND       PRES   REMARKS
ACAPULCO       RAIN      75  73  94 E5        29.92R
B. DE HUATULCO   N/A    N/A N/A N/A MISG        N/A
MINATITLAN       N/A    N/A N/A N/A MISG        N/A
PTO. ESCONDIDO   N/A    N/A N/A N/A MISG        N/A
TAPACHULA      HVY RAIN  73  73 100 S6        29.96
TUX. GUTIERREZ CLOUDY    70  68  94 CALM      30.02F

YUCATAN PENINSULA

CITY           SKY/WX    TMP DP  RH WIND       PRES   REMARKS
CAMPECHE         N/A    N/A N/A N/A MISG        N/A
CANCUN         PTCLDY    81  77  89 E7        30.01F
CHETUMAL       PTCLDY    82  75  78 E7        29.95F
C. DEL CARMEN    N/A    N/A N/A N/A MISG        N/A
COZUMEL        PTCLDY    77  73  88 CALM      29.99S
MERIDA         CLOUDY    82  70  65 E16       29.97S

$$





USA.gov is the U.S. government's official web portal to all federal, state and local government web resources and services.